Ravenna, OH

3:09 AM EDT on May 22, 2018 (GMT -0400)
Ravenna

Weather History for KPOV - September, 2013

Change the Weather History Date:

Sunday, September 1, 2013

  Actual Average (KCAK) Record (KCAK)
Temperature  
Mean Temperature 73 °F -  
Max Temperature 80 °F 79 °F 96 °F (1929)
Min Temperature 66 °F 58 °F 42 °F (1890)
Cooling Degree Days 8    
Growing Degree Days 23 (Base 50)    
Moisture  
Dew Point 68 °F    
Average Humidity 87    
Maximum Humidity 100    
Minimum Humidity 61    
Precipitation  
Precipitation 0.00 in - - ()
Sea Level Pressure  
Sea Level Pressure 29.83 in    
Wind  
Wind Speed 3 mph (SSE)    
Max Wind Speed 8 mph    
Max Gust Speed -    
Visibility 6 miles    
Events      
Averages and records for this station are not official NWS values.
T = Trace of Precipitation, MM = Missing Value Source: NWS Daily Summary

Daily Weather History Graph

Daily Weather History Graph

Search for Another Location

Airport or City:

Astronomy

Sep. 01, 2013 Rise Set
Actual Time 6:51 AM EDT 7:57 PM EDT
Civil Twilight 6:23 AM EDT 8:25 PM EDT
Nautical Twilight 5:49 AM EDT 8:59 PM EDT
Astronomical Twilight 5:14 AM EDT 9:34 PM EDT
Moon 3:10 AM EDT (9/1) 5:35 PM EDT (9/1)
Length of Visible Light 14h 02m
Length of Day
13h 05m
Waning Crescent, 14% of the Moon is Illuminated
Sep 1
Waning Crescent
Sep 5
New
Sep 12
First Quarter
Sep 19
Full
Sep 26
Last Quarter

Hourly Weather History & Observations

Time (EDT) Temp. Heat Index Dew Point Humidity Pressure Visibility Wind Dir Wind Speed Gust Speed Precip Events Conditions
12:05 AM 68.0 °F - 68.0 °F 100% 29.86 in 3.0 mi East 3.5 mph - N/A   Clear
12:25 AM 68.0 °F - 68.0 °F 100% 29.86 in 3.0 mi East 5.8 mph - N/A   Mostly Cloudy
12:45 AM 68.0 °F - 68.0 °F 100% 29.85 in 5.0 mi East 5.8 mph - N/A   Mostly Cloudy
1:05 AM 66.2 °F - 66.2 °F 100% 29.85 in 5.0 mi ENE 3.5 mph - N/A   Scattered Clouds
1:25 AM 66.2 °F - 66.2 °F 100% 29.85 in 4.0 mi Calm Calm - N/A   Clear
1:45 AM 66.2 °F - 66.2 °F 100% 29.86 in 3.0 mi Calm Calm - N/A   Scattered Clouds
2:05 AM 66.2 °F - 66.2 °F 100% 29.85 in 4.0 mi Calm Calm - N/A   Scattered Clouds
2:25 AM 66.2 °F - 66.2 °F 100% 29.85 in 5.0 mi Calm Calm - N/A   Scattered Clouds
2:45 AM 68.0 °F - 68.0 °F 100% 29.84 in 4.0 mi Calm Calm - N/A   Overcast
3:05 AM 66.2 °F - 66.2 °F 100% 29.83 in 3.0 mi Calm Calm - N/A   Mostly Cloudy
3:25 AM 66.2 °F - 66.2 °F 100% 29.83 in 4.0 mi Calm Calm - N/A   Overcast
3:45 AM 66.2 °F - 66.2 °F 100% 29.83 in 2.5 mi Calm Calm - N/A   Overcast
4:05 AM 66.2 °F - 66.2 °F 100% 29.83 in 3.0 mi Calm Calm - N/A   Overcast
4:25 AM 68.0 °F - 68.0 °F 100% 29.83 in 3.0 mi Calm Calm - N/A   Overcast
4:45 AM 68.0 °F - 68.0 °F 100% 29.83 in 3.0 mi Calm Calm - N/A   Overcast
5:05 AM 68.0 °F - 68.0 °F 100% 29.83 in 3.0 mi Calm Calm - N/A   Overcast
5:25 AM 68.0 °F - 68.0 °F 100% 29.83 in 3.0 mi Calm Calm - N/A   Overcast
5:45 AM 68.0 °F - 68.0 °F 100% 29.83 in 3.0 mi ENE 3.5 mph - N/A   Overcast
6:05 AM 68.0 °F - 68.0 °F 100% 29.83 in 4.0 mi Calm Calm - N/A   Overcast
6:25 AM 66.2 °F - 66.2 °F 100% 29.83 in 3.0 mi East 3.5 mph - N/A   Scattered Clouds
6:45 AM 66.2 °F - 66.2 °F 100% 29.83 in 3.0 mi ESE 3.5 mph - N/A   Scattered Clouds
7:05 AM 68.0 °F - 68.0 °F 100% 29.84 in 5.0 mi East 5.8 mph - N/A   Overcast
7:25 AM 68.0 °F - 68.0 °F 100% 29.84 in 4.0 mi East 5.8 mph - N/A   Overcast
7:45 AM 68.0 °F - 68.0 °F 100% 29.84 in 2.5 mi East 5.8 mph - N/A   Overcast
8:05 AM 68.0 °F - 68.0 °F 100% 29.85 in 3.0 mi East 3.5 mph - N/A   Overcast
8:25 AM 68.0 °F - 68.0 °F 100% 29.84 in 4.0 mi East 4.6 mph - N/A   Overcast
8:45 AM 69.8 °F - 69.8 °F 100% 29.85 in 5.0 mi East 4.6 mph - N/A   Overcast
9:05 AM 69.8 °F - 69.8 °F 100% 29.85 in 3.0 mi ESE 3.5 mph - N/A   Overcast
9:25 AM 69.8 °F - 69.8 °F 100% 29.85 in 1.5 mi Calm Calm - N/A   Overcast
9:45 AM 69.8 °F - 69.8 °F 100% 29.86 in 1.0 mi Calm Calm - N/A   Overcast
10:05 AM 69.8 °F - 69.8 °F 100% 29.85 in 1.0 mi Calm Calm - N/A   Overcast
10:25 AM 71.6 °F - 71.6 °F 100% 29.85 in 2.5 mi ESE 3.5 mph - N/A   Overcast
10:45 AM 73.4 °F - 73.4 °F 100% 29.85 in 4.0 mi Calm Calm - N/A   Overcast
11:05 AM 75.2 °F - 73.4 °F 94% 29.84 in 7.0 mi ESE 5.8 mph - N/A   Mostly Cloudy
11:25 AM 77.0 °F - 68.0 °F 74% 29.84 in 10.0 mi Calm Calm - N/A   Mostly Cloudy
11:45 AM 75.2 °F - 68.0 °F 78% 29.84 in 10.0 mi Calm Calm - N/A   Scattered Clouds
12:05 PM 78.8 °F - 68.0 °F 69% 29.83 in 10.0 mi SSE 3.5 mph - N/A   Scattered Clouds
12:25 PM 78.8 °F - 66.2 °F 65% 29.83 in 10.0 mi SSW 6.9 mph - N/A   Scattered Clouds
12:45 PM 80.6 °F 83.2 °F 68.0 °F 65% 29.83 in 10.0 mi SSW 4.6 mph - N/A   Mostly Cloudy
1:05 PM 78.8 °F - 66.2 °F 65% 29.83 in 7.0 mi SW 3.5 mph - N/A   Overcast
1:25 PM 80.6 °F 82.7 °F 66.2 °F 61% 29.83 in 7.0 mi WSW 4.6 mph - N/A   Mostly Cloudy
1:45 PM 80.6 °F 82.7 °F 66.2 °F 61% 29.83 in 7.0 mi WSW 4.6 mph - N/A   Mostly Cloudy
2:05 PM 80.6 °F 82.7 °F 66.2 °F 61% 29.83 in 10.0 mi West 3.5 mph - N/A   Mostly Cloudy
2:25 PM 80.6 °F 82.7 °F 66.2 °F 61% 29.82 in 5.0 mi Calm Calm - N/A   Mostly Cloudy
2:45 PM 80.6 °F 82.7 °F 66.2 °F 61% 29.82 in 10.0 mi WSW 6.9 mph - N/A   Mostly Cloudy
3:05 PM 78.8 °F - 66.2 °F 65% 29.82 in 7.0 mi West 5.8 mph - N/A   Mostly Cloudy
3:25 PM 80.6 °F 82.7 °F 66.2 °F 61% 29.81 in 7.0 mi WSW 6.9 mph - N/A   Mostly Cloudy
3:45 PM 78.8 °F - 68.0 °F 69% 29.81 in 7.0 mi SSW 4.6 mph - N/A   Mostly Cloudy
4:05 PM 78.8 °F - 68.0 °F 69% 29.80 in 10.0 mi West 5.8 mph - N/A   Mostly Cloudy
4:25 PM 80.6 °F 83.2 °F 68.0 °F 65% 29.80 in 7.0 mi SW 3.5 mph - N/A   Mostly Cloudy
4:45 PM 80.6 °F 83.2 °F 68.0 °F 65% 29.80 in 7.0 mi West 5.8 mph - N/A   Scattered Clouds
5:05 PM 78.8 °F - 69.8 °F 74% 29.79 in 7.0 mi SW 3.5 mph - N/A   Mostly Cloudy
5:45 PM 80.6 °F 82.7 °F 66.2 °F 61% 29.79 in 7.0 mi SW 3.5 mph - N/A   Clear
6:05 PM 80.6 °F 83.2 °F 68.0 °F 65% 29.79 in 7.0 mi South 4.6 mph - N/A   Clear
6:25 PM 78.8 °F - 68.0 °F 69% 29.79 in 7.0 mi Calm Calm - N/A   Scattered Clouds
6:45 PM 78.8 °F - 68.0 °F 69% 29.79 in 7.0 mi Calm Calm - N/A   Mostly Cloudy
7:05 PM 77.0 °F - 68.0 °F 74% 29.79 in 7.0 mi Calm Calm - N/A   Mostly Cloudy
7:25 PM 77.0 °F - 68.0 °F 74% 29.79 in 7.0 mi Calm Calm - N/A   Mostly Cloudy
7:45 PM 75.2 °F - 68.0 °F 78% 29.80 in 7.0 mi SSW 6.9 mph - N/A   Overcast
8:05 PM 73.4 °F - 69.8 °F 88% 29.80 in 10.0 mi SSE 4.6 mph - N/A   Overcast
8:25 PM 73.4 °F - 68.0 °F 83% 29.80 in 10.0 mi SE 3.5 mph - N/A   Overcast
8:45 PM 71.6 °F - 69.8 °F 94% 29.81 in 7.0 mi Calm Calm - N/A   Overcast
9:05 PM 73.4 °F - 68.0 °F 83% 29.83 in 10.0 mi NE 8.1 mph - N/A   Overcast
9:25 PM 71.6 °F - 66.2 °F 83% 29.83 in 10.0 mi Calm Calm - N/A   Overcast
9:45 PM 71.6 °F - 68.0 °F 88% 29.82 in 10.0 mi Calm Calm - N/A   Mostly Cloudy
10:05 PM 71.6 °F - 71.6 °F 100% 29.83 in 3.0 mi NNW 4.6 mph - N/A   Overcast
10:25 PM 71.6 °F - 71.6 °F 100% 29.83 in 7.0 mi Calm Calm - N/A   Overcast
10:45 PM 71.6 °F - 71.6 °F 100% 29.82 in 7.0 mi SW 3.5 mph - N/A   Mostly Cloudy
11:05 PM 71.6 °F - 71.6 °F 100% 29.82 in 10.0 mi WSW 3.5 mph - N/A   Scattered Clouds
11:25 PM 69.8 °F - 69.8 °F 100% 29.82 in 10.0 mi Calm Calm - N/A   Clear
11:45 PM 69.8 °F - 69.8 °F 100% 29.82 in 1.2 mi Calm Calm - N/A   Unknown